Location: Newark
(9.4667°S, 159.8167°E)
Time: 20:41:39
(UTC+00:00)

Vanguard 1 - Pass Details

Date: 16 November 2019
Orbit: 652 x 3831 km, 34.3° (Epoch: 07 December)

Event Time Altitude Azimuth Distance (km) Brightness Sun altitude
Rises 16:56:45 0° 234° (SW) 7,519 14.3 -26.4°
Reaches altitude 10° 17:02:05 10° 228° (SW) 6,730 14.1 -25.2°
Maximum altitude 17:24:31 48° 157° (SSE) 4,377 13.6 -20.2°
Drops below altitude 10° 17:42:33 10° 87° (E) 5,611 14.9 -16.1°
Sets 17:46:24 0° 81° (E) 6,258 15.2 -15.2°
